Regional Weather Roundup
Issued by NWS

Home | Current Version | Previous Version | Text Only | Print | Product List | Glossary Off
Versions: 1 2 3 4 5 6 7 8 9 10 11 12 13 14 15 16 17 18 19 20 21 22 23 24 25 26 27 28 29 30 31 32 33 34 35 36 37 38 39 40 41 42 43 44 45 46 47 48 49 50

341
ASUS43 KMPX 080010
RWRMN
WEATHER ROUNDUP FOR MINNESOTA
NATIONAL WEATHER SERVICE TWIN CITIES/CHANHASSEN MN
600 PM CST SUN FEB 07 2016


NOTE: "FAIR" INDICATES FEW OR NO CLOUDS BELOW 12,000 FEET WITH NO
SIGNIFICANT WEATHER AND/OR OBSTRUCTIONS TO VISIBILITY. N/A MEANS
CURRENT SKY AND/OR WEATHER CONDITIONS ARE NOT AVAILABLE.

MNZ060>063-068>070-080100-
   Twin Cities Metro

CITY           SKY/WX    TMP DP  RH WIND       PRES   REMARKS
TWIN CITIES    CLOUDY    33  22  63 NW17G32   29.68R WCI  22
6HR MIN TEMP:  33; 6HR MAX TEMP:  40; 6HR PCP: TRACE;

ST PAUL        CLOUDY    33  24  69 NW22G29   29.68R WCI  21
CRYSTAL        FLURRIES  31  23  72 NW18G35   29.68R WCI  19
BLAINE         LGT SNOW  34  27  75 NW24      29.67R WCI  21
LAKEVILLE      CLOUDY    32  28  86 NW21      29.67R WCI  20
EDEN PRAIRIE   CLOUDY    33  23  66 NW25G35   29.68R WCI  20
6HR MIN TEMP:  34; 6HR MAX TEMP:  41; 6HR PCP: TRACE;

SOUTH ST PAUL  CLOUDY    34  24  69 NW14G28   29.67R WCI  24
LAKE ELMO      CLOUDY    34  30  86 W17G25    29.66R WCI  23
$$
MNZ001>005-007-008-013>017-022>024-027-028-080100-
   Northwest Minnesota

CITY           SKY/WX    TMP DP  RH WIND       PRES   REMARKS
BEMIDJI        LGT SNOW  12   9  85 NW23G33   29.75R VSB 1   WCI  -7
HALLOCK        SNOW      12   9  85 N30G41    29.93R VSB 1/2 WCI  -9
ROSEAU         LGT SNOW  10   5  79 NW20G28   29.84R WCI  -8
WARROAD        LGT SNOW   9   3  78 NW24G31   29.82R VSB 3/4 WCI -12
CROOKSTON      HVY SNOW  12  10  92 N30G41    29.93R VSB 1/4 WCI  -9
FOSSTON        LGT SNOW   9   7  92 NW24G32   29.84R WCI -12
DETROIT LAKES  LGT SNOW  14  12  92 NW32G40   29.84R VSB 3/4 WCI  -7
MOORHEAD       MIX PCPN  18  14  86 N23G30    29.92R WCI   0
PARK RAPIDS    LGT SNOW  13   7  77 NW21G37   29.75R VSB 3/4 WCI  -5
MAHNOMEN       LGT SNOW  10   7  87 NW28      29.86R VSB 3/4 WCI -11
$$
MNZ006-009>011-018-025>026-080100-
   North Central Minnesota

CITY           SKY/WX    TMP DP  RH WIND       PRES   REMARKS
BAUDETTE       LGT SNOW  10   4  76 NW26G38   29.75R WCI -11
FLAG ISLAND    LGT SNOW   9   5  85 NW25G32   29.78R WCI -13
INTL FALLS     MIX PCPN  22  18  85 NW18      29.64R FOG     WCI   7
6HR MIN TEMP:  22; 6HR MAX TEMP:  31; 6HR PCP:  0.01;

WASKISH        LGT SNOW  14  10  85 W14G21    29.74R WCI  -1
LONGVILLE      LGT SNOW  16  12  86 NW16G22   29.70R WCI   0
GRAND RAPIDS   CLOUDY    21  14  73 NW24G36   29.63R WCI   4
CRANE LAKE     CLOUDY    27  27 100 NW2       29.56R
ORR            LGT SNOW  23  19  86 NW15G24   29.56R WCI  10
COOK           LGT SNOW  25  21  86 NW9G20    29.57R WCI  15
WALKER         LGT SNOW  13   8  81 NW21G32   29.73R WCI  -5
$$
MNZ012-019>021-037-080100-
   Northeast Minnesota

CITY           SKY/WX    TMP DP  RH WIND       PRES   REMARKS
DULUTH         FLURRIES  28  24  85 NW15G23   29.53R WCI  16
6HR MIN TEMP:  28; 6HR MAX TEMP:  34; 6HR PCP:  0.04;

ELY            LGT SNOW  30  30 100 NW9       29.50R VSB 1   WCI  22
HIBBING        MIX PCPN  22  20  92 NW23      29.57R FOG     WCI   6
EVELETH        LGT SNOW  27  23  86 NW15G21   29.56R WCI  15
DULUTH HARBOR  CLOUDY    32  28  86 W17       29.57R WCI  21
TWO HARBORS    LGT SNOW  34  28  80 NW10G16   29.50R WCI  26
SILVER BAY     CLOUDY    34  30  86 CALM      29.49R
GRAND MARAIS     N/A     30  25  81 NE10G21   29.54R WCI  21
G MARAIS ARPRT LGT SNOW  21  18  86 N13       29.49R WCI   9
$$
MNZ029>031-032-039>041-046>048-054>057-064-080100-
   West Central Minnesota

CITY           SKY/WX    TMP DP  RH WIND       PRES   REMARKS
FERGUS FALLS   LGT SNOW  19  12  73 N29G40    29.89R WCI   1
WHEATON        LGT SNOW  25  21  86 NW24G31   29.91R WCI   9
MORRIS         LGT SNOW  23  18  80 N29G36    29.83R WCI   6
ALEXANDRIA     LGT SNOW  20  13  74 NW28G37   29.79R WCI   2
ELBOW LAKE     CLOUDY    19  13  76 NW28G40   29.85R HAZE    WCI   1
WADENA         LGT SNOW  14   9  79 NW26G40   29.76R WCI  -6
GLENWOOD       FLURRIES  21  18  86 NW28G33   29.79R WCI   3
APPLETON       CLOUDY    27  19  74 NW33G40   29.84R WCI   9
BENSON         FLURRIES  25  19  80 N24G32    29.83R WCI   9
ORTONVILLE     CLOUDY    25  16  68 NW29G41   29.87R WCI   8
MADISON        CLOUDY    28  19  69 NW33G39   29.86R WCI  12
WILLMAR        CLOUDY    28  23  80 NW30G37   29.81R WCI  13
$$
MNZ033>034-036-042>043-049>051-058-059-080100-
   Central Minnesota

CITY           SKY/WX    TMP DP  RH WIND       PRES   REMARKS
ST CLOUD       LGT SNOW  24  19  81 NW22G30   29.73R WCI   9
6HR MIN TEMP:  24; 6HR MAX TEMP:  38; 6HR PCP: TRACE;

SAUK CENTRE    LGT SNOW  20  16  83 NW24G32   29.77R WCI   3
PAYNESVILLE    CLOUDY    25  16  68 NW23G35   29.77R WCI  10
AITKIN         FLURRIES  23  12  63 NW10G21   29.66R WCI  12
PINE RIVER     LGT SNOW  16  12  86 NW12      29.75R WCI   3
BRAINERD       LGT SNOW  18  13  80 NW16G28   29.71R VSB 1   WCI   3
STAPLES        LGT SNOW  16  10  79 NW22G32   29.75R WCI  -2
LONG PRAIRIE   LGT SNOW  19  16  86 W17G24    29.76R VSB 1   WCI   4
LITTLE FALLS   LGT SNOW  19  16  86 NW10G26   29.74R WCI   8
LITCHFIELD     LGT SNOW  27  25  93 NW24      29.76R WCI  12
BUFFALO        FLURRIES  28  19  68 W25G35    29.73R WCI  14
MAPLE LAKE     CLOUDY    28  20  74 NW20G33   29.74R WCI  14
$$
MNZ037-044-045-052-053-080100-
   East Central Minnesota

CITY           SKY/WX    TMP DP  RH WIND       PRES   REMARKS
PRINCETON      LGT SNOW  27  23  86 W14G29    29.69R WCI  15
MORA           LGT SNOW  27  23  86 W16G25    29.67R WCI  14
CAMBRIDGE      LGT SNOW  27  19  74 NW21G28   29.67R WCI  13
RUSH CITY      FLURRIES  27  23  84 NW20G25   29.65R WCI  14
MOOSE LAKE     CLOUDY    28  21  74 NW14G25   29.60R WCI  17
HINCKLEY       LGT SNOW  28  25  86 W13G21    29.63R WCI  18
CLOQUET        FLURRIES  27  21  80 W16G28    29.56R WCI  14
MCGREGOR       CLOUDY    23  19  86 W15G25    29.64R WCI  10
$$
MNZ071>073-080-081-089-090-097-098-080100-
   Southwest Minnesota

CITY           SKY/WX    TMP DP  RH WIND       PRES   REMARKS
MONTEVIDEO     CLOUDY    27  23  86 N18G29    29.85R WCI  13
GRANITE FALLS  LGT SNOW  30  25  81 NW26G38   29.85R WCI  15
CANBY          LGT SNOW  31  26  83 W26G38    29.88R WCI  17
MARSHALL       FLURRIES  28  22  78 NW31G43   29.83R WCI  12
REDWOOD FALLS  CLOUDY    29  23  78 NW18G28   29.81R WCI  16
OLIVIA         MIX PCPN  30  27  86 NW23G32   29.79R WCI  17
PIPESTONE      FLURRIES  28  18  64 N21G28    29.86R WCI  15
WINDOM         MIX PCPN  30  27  86 NW32      29.79R WCI  15
WORTHINGTON    CLOUDY    28  23  80 NW28G36   29.84R WCI  13
JACKSON        LGT SNOW  32  27  80 NW38      29.80R WCI  16
TRACY          LGT SNOW  30  25  80 NW25G33   29.83R WCI  16
SLAYTON        LGT SNOW  27  26  97 NW33      29.83R VSB 1   WCI  10
$$
MNZ065>067-074>077-082>085-091>093-080100-
   South Central Minnesota

CITY           SKY/WX    TMP DP  RH WIND       PRES   REMARKS
MANKATO        CLOUDY   N/A N/A N/A NW25G36   29.73R
NEW ULM        FLURRIES  30  27  86 NW24G35   29.76R WCI  16
ST JAMES       LGT SNOW  32  30  93 NW24G32   29.80R WCI  19
FAIRMONT       CLOUDY    34  27  75 NW24G39   29.77R WCI  21
GLENCOE        CLOUDY    31  25  78 NW29G35   29.73R WCI  17
FARIBAULT        N/A     34  32  93 W15G24    29.69R WCI  24
OWATONNA       CLOUDY    34  30  86 W18       29.69S WCI  23
WASECA         DRIZZLE   34  30  86 W23G31    29.72S WCI  22
ALBERT LEA     CLOUDY    34  32  93 W14G24    29.71S WCI  24
$$
MNZ078>079-086>088-094>096-080100-
   Southeast Minnesota

CITY           SKY/WX    TMP DP  RH WIND       PRES   REMARKS
ROCHESTER      CLOUDY    33  30  88 W20       29.67R WCI  21
6HR MIN TEMP:  33; 6HR MAX TEMP:  37;

RED WING       CLOUDY    37  30  75 W10       29.64S
STANTON        CLOUDY    36  32  85 W15G21    29.66R
DODGE CENTER   CLOUDY    34  30  86 W16       29.67S FOG     WCI  23
WINONA         CLOUDY    37  30  75 W10G17    29.67S
AUSTIN         LGT RAIN  34  30  86 W14G21    29.70  WCI  24
PRESTON        CLOUDY    33  29  86 W15       29.69S WCI  23
$$
ABBREVIATIONS USED IN REMARKS
   TC - TEMPERATURES IN CELSIUS
  WCI - WIND CHILL INDEX
   HX - HEAT INDEX
  VSB - VISIBILITY
$$




USA.gov is the U.S. government's official web portal to all federal, state and local government web resources and services.